Location: Unspecified
(33.9239°N, 118.0544°W)
Time: 23:20:56
(UTC-07:00)

Resurs 1-4 Rocket - Visible Passes

Search period start: 25 April 2015 00:00
Search period end: 05 May 2015 00:00
Orbit: 799 x 815 km, 98.4° (Epoch: 25 April)

Date Brightness Start Highest point End Pass type
(mag) Time Alt. Az. Time Alt. Az. Time Alt. Az.
25 Apr 4.7 03:07:29 10° ENE 03:09:40 13° E 03:12:13 10° ESE visible
25 Apr 2.1 04:44:50 10° N 04:50:02 61° WNW 04:53:51 18° SSW visible
26 Apr 2.2 04:20:19 10° NNE 04:25:35 77° E 04:29:10 21° S visible
27 Apr 3.1 03:56:04 10° NNE 04:01:04 43° E 04:04:28 19° SSE visible
27 Apr 3.5 05:36:52 10° NNW 05:40:40 20° WNW 05:44:17 10° WSW visible
28 Apr 4.0 03:32:13 10° NE 03:36:26 25° E 03:39:47 14° SE visible
28 Apr 2.9 05:11:39 10° N 05:16:21 33° WNW 05:20:53 11° SW visible
29 Apr 4.6 03:09:11 10° ENE 03:11:40 14° E 03:14:29 10° ESE visible
29 Apr 2.2 04:46:48 10° N 04:51:59 58° WNW 04:56:11 16° SSW visible
30 Apr 2.1 04:22:15 10° NNE 04:27:33 82° ESE 04:31:29 19° S visible
01 May 3.0 03:57:58 10° NNE 04:03:02 46° E 04:06:47 18° SSE visible
02 May 3.9 03:34:04 10° NE 03:38:24 26° E 03:42:05 13° SSE visible
02 May 3.0 05:13:38 10° N 05:18:18 32° WNW 05:22:52 10° SW visible
03 May 4.6 03:10:54 10° ENE 03:13:39 15° E 03:16:43 10° SE visible
03 May 2.3 04:48:46 10° N 04:53:56 55° WNW 04:58:28 13° SSW visible
04 May 2.1 04:24:11 10° NNE 04:29:30 86° ESE 04:33:45 16° SSW visible
